Regional Weather Roundup
Issued by NWS Sioux Falls, SD

Home | Current Version | Previous Version | Graphics & Text | Print | Product List | Glossary On
Versions: 1 2 3 4 5 6 7 8 9 10 11 12 13 14 15 16 17 18 19 20 21 22 23 24 25 26 27 28 29 30 31 32 33 34 35 36 37 38 39 40 41 42 43 44 45 46 47 48 49 50
000
ASUS43 KFSD 260502
RWRFSD

WEATHER ROUNDUP FOR SE SOUTH DAKOTA/SW MINNESOTA/NW IOWA
NATIONAL WEATHER SERVICE SIOUX FALLS SD
1100 PM CST SUN JAN 25 2015

NOTE: "FAIR" INDICATES FEW OR NO CLOUDS BELOW 12,000 FEET WITH NO
SIGNIFICANT WEATHER AND OR OBSTRUCTIONS TO VISIBILITY.


SDZ038>040-050-052>070-260600-
SOUTHEAST SOUTH DAKOTA

CITY           SKY/WX    TMP DP  RH WIND       PRES   REMARKS
CHAMBERLAIN    NOT AVBL
HURON          PTCLDY    32  31  96 S9        29.91F WCI  24
MADISON        FAIR      32  32 100 SW8       29.93F WCI  25
MITCHELL       PTCLDY    34  32  92 S9        29.95F WCI  27
SIOUX FALLS    MOCLDY    32  30  92 S6        29.97F WCI  26
WINNER         FAIR      40  28  62 SW12      29.91F
YANKTON        CLEAR     32  30  93 S3        30.02R
$$

MNZ071-072-080-081-089-090-097-098-260600-
SOUTHWEST MINNESOTA

CITY           SKY/WX    TMP DP  RH WIND       PRES   REMARKS
FAIRMONT       CLOUDY    28  23  80 S6        29.99F WCI  22
JACKSON        CLOUDY    30  28  93 S7        29.99S WCI  23
LUVERNE        CLOUDY    32  32 100 CALM      29.99S
MARSHALL       CLOUDY    30  28  93 W5        29.94F WCI  25
MONTEVIDEO     MOCLDY    28  28 100 SW6       29.93F WCI  22
PIPESTONE      CLOUDY    32  30  93 SW8       29.93F WCI  25
REDWOOD FALLS  CLOUDY    30  28  92 S8        29.95F WCI  22
TRACY          CLOUDY    31  30  94 SW9       29.95F WCI  23
WINDOM         CLOUDY    28  28 100 S6        29.96F WCI  22
WORTHINGTON    CLOUDY    32  28  86 SW8       29.98S WCI  25
$$

IAZ001>003-012>014-020>022-031-032-NEZ013-014-SDZ071-260600-
NORTHWEST IOWA

CITY           SKY/WX    TMP DP  RH WIND       PRES   REMARKS
ESTHERVILLE    CLOUDY    28  25  88 S10       29.99F WCI  19
SIOUX CITY     CLOUDY    32  30  92 S3        30.04S
SPENCER        CLOUDY    33  30  88 SW5       30.01S WCI  29
$$

ABBREVIATIONS USED IN REMARKS
   TC - TEMPERATURE IN CELSIUS
  WCI - WIND CHILL INDEX
   HX - HEAT INDEX
  VSB - VISIBILITY



USA.gov is the U.S. government's official web portal to all federal, state and local government web resources and services.